"Time","Temp","Dewpoint","Humidity","Pressure","Direction","Speed","Gust","Precip","PrecipRate"
"00:04:57","52.2","36.2","54.5","30.09","5","0","0","0.00","0.00"
"00:09:58","52","34.6","51.5","30.09","5","0","2.4","0.00","0.00"
"00:14:56","51.9","34.9","52.3","30.09","5","0.6","2.4","0.00","0.00"
"00:19:57","51.8","36","54.6","30.08","5","0.5","2.4","0.00","0.00"
"00:24:57","51.6","34.9","52.9","30.08","5","1.1","3.6","0.00","0.00"
"00:29:58","51.8","34.6","51.9","30.08","5","1","2.4","0.00","0.00"
"00:34:56","51.9","35.4","53.3","30.08","5","0.4","2.4","0.00","0.00"
"00:39:58","51.7","35.3","53.3","30.08","5","0","0","0.00","0.00"
"00:44:59","51.5","35.2","53.6","30.08","5","0","0","0.00","0.00"
"00:49:56","51.4","35.5","54.4","30.08","5","0.1","1.2","0.00","0.00"
"00:54:57","51.3","35.5","54.6","30.08","5","0","1.2","0.00","0.00"
"00:59:58","51.1","35.6","55.2","30.08","5","0.1","2.4","0.00","0.00"
"01:04:59","50.9","35","54.3","30.08","5","1.7","3.6","0.00","0.00"
"01:09:58","51.1","35","53.9","30.08","5","0.8","3.6","0.00","0.00"
"01:14:57","51.2","36.4","56.8","30.08","5","0.1","1.2","0.00","0.00"
"01:19:58","50.9","36.9","58.6","30.08","5","0.2","2.4","0.00","0.00"
"01:24:56","50.6","36.1","57.4","30.08","5","0.5","2.4","0.00","0.00"
"01:29:56","50.5","36.3","57.9","30.08","5","0.3","1.2","0.00","0.00"
"01:34:58","50.4","36.8","59.6","30.08","5","0.1","1.2","0.00","0.00"
"01:39:59","50.3","37.5","61.3","30.08","5","0.3","1.2","0.00","0.00"
"01:44:56","50.3","36.4","58.7","30.08","5","0.8","2.4","0.00","0.00"
"01:49:58","50.6","38.2","62.3","30.07","5","0.3","2.4","0.00","0.00"
"01:54:59","50.8","38.1","61.7","30.07","5","0.3","2.4","0.00","0.00"
"01:59:56","50.9","38.1","61.5","30.07","5","0.7","2.4","0.00","0.00"
"02:04:57","51.2","39.6","64.5","30.07","5","0.2","2.4","0.00","0.00"
"02:09:56","51.3","39.2","63","30.07","5","0","0","0.00","0.00"
"02:14:58","51.4","38","60.2","30.07","5","0","0","0.00","0.00"
"02:19:59","51.6","38.3","60.3","30.06","5","0","0","0.00","0.00"
"02:24:59","51.7","39.7","63.4","30.06","5","0","0","0.00","0.00"
"02:29:59","51.7","39.4","62.8","30.06","5","0","0","0.00","0.00"
"02:34:56","51.7","39.2","62.2","30.05","5","0","0","0.00","0.00"
"02:39:58","51.9","38.9","60.9","30.05","5","0","0","0.00","0.00"
"02:44:58","52","39.2","61.3","30.05","5","0.2","2.4","0.00","0.00"
"02:49:59","52.2","38.7","60","30.05","5","0.3","1.2","0.00","0.00"
"02:54:56","52.4","39.5","61.5","30.05","5","0.2","1.2","0.00","0.00"
"02:59:56","52.5","39.2","60.7","30.05","5","0","0","0.00","0.00"
"03:04:58","52.5","38.5","59","30.05","5","0","0","0.00","0.00"
"03:09:58","52.6","39.2","60.4","30.05","5","0","0","0.00","0.00"
"03:14:59","52.6","40.2","62.7","30.05","5","0","0","0.00","0.00"
"03:19:57","52.4","40","62.5","30.04","5","0","0","0.00","0.00"
"03:24:58","52.3","39.7","62.1","30.04","5","0","1.2","0.00","0.00"
"03:29:58","52.3","38.5","59.2","30.04","5","0.3","2.4","0.00","0.00"
"03:34:58","52.4","38.5","58.9","30.04","5","0.6","2.4","0.00","0.00"
"03:39:56","52.7","39.1","59.8","30.04","5","0.5","2.4","0.00","0.00"
"03:44:57","52.9","38.4","57.6","30.04","5","0.7","3.6","0.00","0.00"
"03:49:57","54.1","36.2","50.6","30.04","6","0.6","3.5","0.00","0.00"
"03:54:56","55.5","37.6","51.1","30.04","9","0.2","1.2","0.00","0.00"
"03:59:56","57","35.8","45.1","30.04","271","2.3","10.8","0.00","0.00"
"04:04:57","59","35.1","40.6","30.04","273","1.2","3.6","0.00","0.00"
"04:09:56","60","36.2","41","30.04","273","0.5","3.6","0.00","0.00"
"04:14:57","60.4","34.6","37.8","30.04","273","0.8","2.4","0.00","0.00"
"04:19:57","61.2","34","36","30.04","273","1.1","3.6","0.00","0.00"
"04:24:58","61.8","35.2","37","30.04","231","0.2","3.6","0.00","0.00"
"04:29:58","61.8","33.9","35.2","30.04","231","0.3","3.5","0.00","0.00"
"04:34:59","61.7","34.3","35.8","30.04","297","0.5","3.6","0.00","0.00"
"04:39:56","61.7","35.1","37","30.04","297","0.6","3.5","0.00","0.00"
"04:44:56","61.5","36.2","38.9","30.04","297","0.3","2.4","0.00","0.00"
"04:49:56","61.1","37.5","41.5","30.04","294","1","2.4","0.00","0.00"
"04:54:56","61.1","37.1","41","30.04","309","0.7","2.4","0.00","0.00"
"04:59:59","60.6","35.5","39","30.04","309","0.5","3.6","0.00","0.00"
"05:04:56","60.3","34.7","38.2","30.04","302","0.5","2.4","0.00","0.00"
"05:09:59","60.1","34.7","38.5","30.04","230","0.9","3.6","0.00","0.00"
"05:14:56","60.1","34.4","38","30.04","230","0.4","1.2","0.00","0.00"
"05:19:56","60.1","35.5","39.8","30.04","230","0.5","2.4","0.00","0.00"
"05:24:58","60.1","35.4","39.6","30.04","226","0.8","3.6","0.00","0.00"
"05:29:59","60.4","36.1","40.3","30.04","221","0.7","2.4","0.00","0.00"
"05:34:56","60.4","35.3","38.9","30.04","221","0.6","2.3","0.00","0.00"
"05:39:56","60.4","34.4","37.7","30.04","221","0.9","2.4","0.00","0.00"
"05:44:56","60.2","34.9","38.7","30.04","222","0.8","1.2","0.00","0.00"
"05:49:57","60","34.9","38.9","30.04","222","0.4","2.4","0.00","0.00"
"05:54:57","59.7","36.2","41.3","30.04","222","0.2","2.4","0.00","0.00"
"05:59:57","59.3","35.8","41.3","30.04","261","1","4.8","0.00","0.00"
"06:04:57","58.9","36.6","43.4","30.04","297","0.8","2.4","0.00","0.00"
"06:09:57","58.6","36.3","43.1","30.04","297","0.8","2.4","0.00","0.00"
"06:14:59","58.8","36.9","44.1","30.04","297","0.8","1.2","0.00","0.00"
"06:19:59","58.3","35.8","42.9","30.04","297","0.6","1.2","0.00","0.00"
"06:24:59","58.3","35","41.5","30.04","297","0.6","2.4","0.00","0.00"
"06:29:59","58.6","35.9","42.5","30.05","297","1","2.4","0.00","0.00"
"06:34:56","58.4","35.6","42.3","30.05","297","0.6","2.3","0.00","0.00"
"06:39:57","58.2","37.3","45.7","30.05","297","0.6","1.2","0.00","0.00"
"06:44:57","58","36.4","44.4","30.05","297","0.7","2.4","0.00","0.00"
"06:49:58","57.6","36.6","45.5","30.05","297","0.2","2.3","0.00","0.00"
"06:54:59","57.2","36","44.8","30.05","297","0.2","1.2","0.00","0.00"
"06:59:56","57","36.2","45.6","30.05","265","0","0","0.00","0.00"
"07:04:58","56.7","36.6","46.9","30.05","151","0.2","1.2","0.00","0.00"
"07:09:57","56.4","36.7","47.5","30.05","151","0.1","1.2","0.00","0.00"
"07:14:58","56","38.6","51.8","30.06","151","0.1","1.2","0.00","0.00"
"07:19:59","55.6","38.1","51.8","30.06","151","0","0","0.00","0.00"
"07:24:59","55.3","38.6","53.2","30.06","151","0","0","0.00","0.00"
"07:29:59","55.2","38.7","53.9","30.06","151","0","1.2","0.00","0.00"
"07:34:59","55.2","38.5","53.3","30.06","151","0","0","0.00","0.00"
"07:39:56","55.5","39.2","54.2","30.06","151","0","0","0.00","0.00"
"07:44:56","55.9","40","54.9","30.06","151","0","0","0.00","0.00"
"07:49:56","56.5","40.2","54.2","30.06","151","0","0","0.00","0.00"
"07:54:57","57.2","41.6","56","30.06","151","0","0","0.00","0.00"
"07:59:58","58","41.6","54.3","30.06","151","0","0","0.00","0.00"
"08:04:58","59.1","41.8","52.7","30.06","169","1.3","3.6","0.00","0.00"
"08:09:57","60.5","42.7","51.8","30.06","192","2.1","3.6","0.00","0.00"
"08:14:57","62.3","42.1","47.6","30.06","196","2.4","4.8","0.00","0.00"
"08:19:57","63.8","41.9","44.9","30.06","206","2.6","4.8","0.00","0.00"
"08:24:57","64.9","41","41.7","30.06","223","3","6","0.00","0.00"
"08:29:57","65.6","41.3","41.1","30.06","241","2","5.8","0.00","0.00"
"08:34:56","66.2","40.8","39.5","30.06","260","2.8","4.8","0.00","0.00"
"08:39:56","66.7","41.2","39.4","30.06","241","2.4","4.8","0.00","0.00"
"08:44:56","67.2","41.4","39","30.06","229","2.2","4.8","0.00","0.00"
"08:49:56","68.1","41.7","38.4","30.06","245","3.5","10.8","0.00","0.00"
"08:54:59","69","41.6","37","30.06","258","2.9","8.4","0.00","0.00"
"08:59:59","69.7","41.6","36","30.06","280","2.8","10.8","0.00","0.00"
"09:04:59","70.3","42.1","36","30.05","249","3.7","10.4","0.00","0.00"
"09:09:58","70.8","42.3","35.7","30.05","240","2.5","10.8","0.00","0.00"
"09:14:59","71.3","41.7","34.3","30.05","287","4.1","10.8","0.00","0.00"
"09:19:59","71.6","42.5","35","30.05","277","3.6","8.4","0.00","0.00"
"09:24:56","72","43.4","35.7","30.05","281","3.4","7.2","0.00","0.00"
"09:29:58","72.4","42.7","34.4","30.05","278","3.9","9.6","0.00","0.00"
"09:34:58","72.7","44.5","36.5","30.05","253","4.8","13.2","0.00","0.00"
"09:39:58","72.8","42.3","33.3","30.05","300","4.3","12.7","0.00","0.00"
"09:44:58","73.1","43.7","34.9","30.05","295","4.3","16.8","0.00","0.00"
"09:49:58","73","42.5","33.4","30.05","312","8.1","17.3","0.00","0.00"
"09:54:57","73.2","43.8","34.9","30.05","265","5.7","13.2","0.00","0.00"
"09:59:57","73.7","44.2","34.8","30.05","283","5.1","15","0.00","0.00"
"10:04:57","73.9","43.9","34.3","30.05","305","7.3","17.3","0.00","0.00"
"10:09:56","73.9","44.2","34.5","30.05","279","7.2","17.3","0.00","0.00"
"10:14:57","74.4","45.8","36.2","30.05","277","5.4","12.7","0.00","0.00"
"10:19:56","74.4","43.9","33.7","30.05","301","6.4","13.2","0.00","0.00"
"10:24:56","75.1","45.6","35","30.05","295","4.5","8.4","0.00","0.00"
"10:29:56","75.4","45.9","35.2","30.05","277","5.3","12","0.00","0.00"
"10:34:59","75.8","46.2","35","30.05","308","5","16.1","0.00","0.00"
"10:39:59","75.7","46.5","35.5","30.05","254","5.9","12","0.00","0.00"
"10:44:59","75.9","47","36.1","30.05","259","4.1","7.2","0.00","0.00"
"10:49:59","76.4","47.4","35.9","30.05","263","3.8","10.8","0.00","0.00"
"10:54:59","76","45.9","34.4","30.05","307","6.3","15","0.00","0.00"
"10:59:59","75.7","46","35","30.05","321","6","16.1","0.00","0.00"
"11:04:59","76.1","46.6","35.3","30.05","318","7.5","20.4","0.00","0.00"
"11:09:57","76.7","47.9","36.2","30.05","271","4.8","20.7","0.00","0.00"
"11:14:57","76.9","47","34.8","30.05","322","7.3","18","0.00","0.00"
"11:19:57","77.4","48.1","35.8","30.04","305","6.7","15","0.00","0.00"
"11:24:57","77.4","48.2","35.9","30.04","273","6.6","16.1","0.00","0.00"
"11:29:57","78","49.2","36.5","30.04","279","4.6","10.8","0.00","0.00"
"11:34:57","78.1","49","36.2","30.04","292","4.9","12","0.00","0.00"
"11:39:57","77.7","47.9","35","30.04","296","7.1","19.6","0.00","0.00"
"11:44:57","77.2","46.9","34.4","30.04","302","5.9","16.8","0.00","0.00"
"11:49:57","77.6","49.2","36.9","30.04","255","5.6","14.4","0.00","0.00"
"11:54:58","78.9","50.1","36.7","30.04","292","4.8","8.4","0.00","0.00"
"11:59:58","78.6","48.6","35","30.04","329","7.3","17.3","0.00","0.00"
"12:04:58","78.3","48.7","35.5","30.03","308","6.6","16.1","0.00","0.00"
"12:09:57","78.5","48.8","35.3","30.03","289","4.9","14.4","0.00","0.00"
"12:14:59","79","49.9","36.2","30.03","316","7.6","21.9","0.00","0.00"
"12:19:56","79","48.9","34.9","30.02","334","8.8","21.9","0.00","0.00"
"12:24:57","79","50.3","36.7","30.02","288","7.6","20.7","0.00","0.00"
"12:29:58","79.7","49.7","35","30.02","274","5.2","15.6","0.00","0.00"
"12:34:59","79.6","48.9","34.2","30.02","308","7","18","0.00","0.00"
"12:39:57","79.4","49.5","35.3","30.02","317","5.4","18","0.00","0.00"
"12:44:59","80.2","50.9","36","30.02","276","4.5","15","0.00","0.00"
"12:49:56","80.1","50.3","35.4","30.01","281","5","13.2","0.00","0.00"
"12:54:58","79.8","50","35.6","30.01","276","5.7","15.6","0.00","0.00"
"12:59:59","79.8","50.5","36.1","30.01","256","7","16.1","0.00","0.00"
"13:04:57","80","49.9","35.1","30.01","281","5.8","15","0.00","0.00"
"13:09:57","80.2","50.3","35.4","30.01","252","5.5","15","0.00","0.00"
"13:14:59","81.1","51.7","36.2","30.01","277","5","10.8","0.00","0.00"
"13:19:57","80.6","49.5","33.8","30.00","280","4.5","10.8","0.00","0.00"
"13:24:58","81.1","50.8","35.1","30.00","285","6","16.1","0.00","0.00"
"13:29:59","81","49.7","33.7","30.00","303","5","12","0.00","0.00"
"13:34:56","81.3","51.1","35.1","29.99","262","4.6","13.2","0.00","0.00"
"13:39:58","81.9","51.9","35.6","29.99","255","4.6","16.8","0.00","0.00"
"13:44:59","81.9","51.5","35","29.99","255","5.3","17.3","0.00","0.00"
"13:49:58","81.7","50.3","33.6","29.98","229","8.1","15","0.00","0.00"
"13:54:56","81.8","50","33.3","29.98","285","6.2","12.7","0.00","0.00"
"13:59:56","81.7","50.1","33.4","29.98","303","7.3","18.4","0.00","0.00"
"14:04:58","82.7","51.7","34.3","29.97","253","5.5","13.2","0.00","0.00"
"14:09:58","82.7","49.6","31.8","29.97","248","7.1","17.3","0.00","0.00"
"14:14:59","81.7","47.8","30.7","29.97","328","6.4","16.1","0.00","0.00"
"14:19:56","81.7","48","30.9","29.96","304","5.3","16.1","0.00","0.00"
"14:24:58","82.2","49.5","32.2","29.96","279","5.9","15.6","0.00","0.00"
"14:29:59","82.4","51.2","34","29.96","239","7.9","16.1","0.00","0.00"
"14:34:56","82.9","50.3","32.4","29.96","255","6.6","12","0.00","0.00"
"14:39:58","83.7","51.5","33","29.96","265","4.3","15","0.00","0.00"
"14:44:56","82.9","49.2","31.1","29.96","277","4.9","10.8","0.00","0.00"
"14:49:57","83.6","51.6","33.3","29.96","224","6.7","12","0.00","0.00"
"14:54:59","83.4","49","30.4","29.96","257","7.3","16.8","0.00","0.00"
"14:59:56","83.2","50.3","32","29.96","238","10.4","21.6","0.00","0.00"
"15:04:57","83.2","49.6","31.2","29.95","236","7.8","16.1","0.00","0.00"
"15:09:58","83.4","50.1","31.7","29.95","254","6.2","16.1","0.00","0.00"
"15:14:59","84","50.5","31.6","29.95","236","7.5","13.2","0.00","0.00"
"15:19:57","83.7","51.1","32.5","29.94","235","8","13.2","0.00","0.00"
"15:24:58","83.4","50.7","32.4","29.94","224","6.1","10.8","0.00","0.00"
"15:29:56","83.1","49.2","30.9","29.94","242","5.7","15","0.00","0.00"
"15:34:59","83.5","50.4","31.8","29.94","287","5.6","16.1","0.00","0.00"
"15:39:59","83.6","50.3","31.7","29.94","244","5.3","11.5","0.00","0.00"
"15:44:58","84.2","50","30.7","29.94","230","7","16.1","0.00","0.00"
"15:49:59","84","50.9","32","29.93","235","7.7","15","0.00","0.00"
"15:54:56","83.6","49.2","30.4","29.93","240","6.5","13.2","0.00","0.00"
"15:59:58","84","50.5","31.5","29.93","238","5.8","10.8","0.00","0.00"
"16:04:56","84.1","49.9","30.6","29.92","240","6.1","12","0.00","0.00"
"16:09:56","84.3","50.8","31.6","29.92","281","4.7","16.1","0.00","0.00"
"16:14:58","84.7","51","31.4","29.92","246","3.2","6","0.00","0.00"
"16:19:59","84.5","47.7","27.9","29.91","321","6.1","19.6","0.00","0.00"
"16:24:56","84.2","47.7","28.2","29.91","276","5.9","21.9","0.00","0.00"
"16:29:57","84","47.2","27.8","29.91","286","4.7","9.2","0.00","0.00"
"16:34:58","84.2","47.8","28.3","29.91","242","6","12","0.00","0.00"
"16:39:56","84.2","49.2","29.8","29.91","243","5.7","14.4","0.00","0.00"
"16:44:58","84.3","50.2","30.9","29.91","225","4.9","15","0.00","0.00"
"16:49:59","84.2","50.1","30.8","29.91","222","4.4","8.4","0.00","0.00"
"16:54:56","84.7","51.9","32.5","29.91","257","4","12","0.00","0.00"
"16:59:57","84.5","48.1","28.3","29.91","243","6.3","13.2","0.00","0.00"
"17:04:59","84.2","49.7","30.4","29.91","246","4.7","10.4","0.00","0.00"
"17:09:59","84.3","48.5","28.9","29.91","274","4.4","12","0.00","0.00"
"17:14:57","84.4","48.1","28.5","29.91","290","4.5","15","0.00","0.00"
"17:19:58","84.3","49.5","30","29.91","250","5.6","13.2","0.00","0.00"
"17:24:59","84.6","48","28.1","29.91","297","4.3","13.2","0.00","0.00"
"17:29:57","84.8","48.6","28.6","29.91","281","4.1","12","0.00","0.00"
"17:34:58","84.6","47.9","28","29.91","256","5.3","10.8","0.00","0.00"
"17:39:59","84.3","48.2","28.7","29.91","232","5.4","12","0.00","0.00"
"17:44:58","84.1","48.6","29.3","29.91","225","3.6","11.5","0.00","0.00"
"17:49:56","84.4","48.8","29.2","29.91","228","3","8.4","0.00","0.00"
"17:54:57","84.4","48.3","28.5","29.91","253","5.3","12","0.00","0.00"
"17:59:58","83.9","47.8","28.5","29.91","240","5.1","8.1","0.00","0.00"
"18:04:56","83.8","48","28.8","29.91","258","2.3","6","0.00","0.00"
"18:09:56","83.9","48","28.8","29.91","221","3.8","10.8","0.00","0.00"
"18:14:59","83.3","47.9","29.2","29.91","243","5.3","10.8","0.00","0.00"
"18:19:56","82.7","47.4","29.2","29.90","251","5.4","12","0.00","0.00"
"18:24:57","82.4","46.4","28.5","29.90","252","4.4","10.4","0.00","0.00"
"18:29:58","82.4","46.5","28.5","29.90","267","2.8","6.9","0.00","0.00"
"18:34:59","82.4","46.3","28.4","29.90","262","3.3","7.2","0.00","0.00"
"18:39:57","82.4","46.6","28.7","29.90","302","2.3","7.2","0.00","0.00"
"18:44:59","82.3","46.4","28.5","29.90","305","2.8","9.6","0.00","0.00"
"18:49:56","82.2","46","28.2","29.90","292","1.8","4.6","0.00","0.00"
"18:54:58","82.1","46.8","29.2","29.90","279","2.6","6","0.00","0.00"
"18:59:56","81.6","45.8","28.5","29.90","284","2.6","7.2","0.00","0.00"
"19:04:58","81.2","45.5","28.5","29.90","275","1.9","6","0.00","0.00"
"19:09:59","80.8","45.7","29.2","29.90","308","1.2","7.2","0.00","0.00"
"19:14:57","80.5","45.3","29","29.90","265","0.6","4.6","0.00","0.00"
"19:19:59","80.2","45.5","29.5","29.90","265","0.3","1.2","0.00","0.00"
"19:24:57","79.8","45.7","30.2","29.90","265","0.4","2.4","0.00","0.00"
"19:29:59","79.3","45.4","30.3","29.90","265","0.5","2.4","0.00","0.00"
"19:34:57","78.8","45.2","30.5","29.90","265","0.6","2.4","0.00","0.00"
"19:39:58","78.4","45.7","31.6","29.90","265","0.1","1.2","0.00","0.00"
"19:44:59","77.9","45.9","32.3","29.90","265","0","0","0.00","0.00"
"19:49:57","77.2","46.4","33.7","29.90","265","0.1","1.2","0.00","0.00"
"19:54:58","76.3","46.6","35","29.90","265","0","1.2","0.00","0.00"
"19:59:59","75.3","46.8","36.3","29.91","265","0","0","0.00","0.00"
"20:04:59","74.4","46.6","37.3","29.91","265","0","0","0.00","0.00"
"20:09:59","73.5","47","38.9","29.91","265","0","1.2","0.00","0.00"
"20:14:57","72.7","46.8","39.7","29.91","265","0.4","1.2","0.00","0.00"
"20:19:58","72","46.8","40.7","29.91","265","0.2","1.2","0.00","0.00"
"20:24:59","71.3","46.8","41.7","29.91","265","0","1.2","0.00","0.00"
"20:29:59","70.7","47.5","43.7","29.91","265","0","0","0.00","0.00"
"20:34:56","69.9","47.8","45.3","29.91","265","0","0","0.00","0.00"
"20:39:57","69.2","47.6","46.3","29.91","265","0","0","0.00","0.00"
"20:44:58","68.5","47.3","46.7","29.92","265","0.1","1.2","0.00","0.00"
"20:49:59","68.1","47.2","47.2","29.92","265","1","2.4","0.00","0.00"
"20:54:59","67.6","47.6","48.8","29.92","265","0.3","2.3","0.00","0.00"
"20:59:56","67.1","47.5","49.4","29.92","265","0.1","1.2","0.00","0.00"
"21:04:57","66.6","48.1","51.3","29.92","265","0.3","1.2","0.00","0.00"
"21:09:57","66","48","52.3","29.92","265","0.3","1.2","0.00","0.00"
"21:14:57","65.4","47.8","53","29.93","265","0","0","0.00","0.00"
"21:19:58","64.9","47.8","53.8","29.93","265","0","0","0.00","0.00"
"21:24:59","64.4","48","55.1","29.93","265","0.4","1.2","0.00","0.00"
"21:29:56","64.2","47.9","55.3","29.93","265","0.2","1.2","0.00","0.00"
"21:34:56","64.1","48.2","56.2","29.93","265","1.1","2.4","0.00","0.00"
"21:39:57","63.9","48.3","56.8","29.93","265","1","2.4","0.00","0.00"
"21:44:59","63.8","48.2","56.8","29.93","265","0.5","2.4","0.00","0.00"
"21:49:59","63.5","48.4","58","29.93","265","0.3","2.4","0.00","0.00"
"21:54:57","63.1","48.3","58.6","29.93","265","0","0","0.00","0.00"
"21:59:59","62.7","48.3","59.2","29.93","265","0","0","0.00","0.00"
"22:04:56","62.2","48.2","60.2","29.93","265","0","0","0.00","0.00"
"22:09:59","61.8","48.1","60.7","29.93","265","0","0","0.00","0.00"
"22:14:57","61.5","48.2","61.7","29.93","265","0","0","0.00","0.00"
"22:19:57","61","48.4","63.4","29.93","265","0","0","0.00","0.00"
"22:24:58","60.4","47.9","63.3","29.93","265","0","0","0.00","0.00"
"22:29:59","60.1","47.9","63.9","29.93","265","0","0","0.00","0.00"
"22:34:59","60.1","48","64.2","29.93","265","0.4","2.4","0.00","0.00"
"22:39:57","60.3","47.8","63.3","29.93","265","0.8","2.4","0.00","0.00"
"22:44:57","60.3","47.7","63.1","29.94","265","0.1","1.2","0.00","0.00"
"22:49:58","60.1","47.6","63.3","29.94","265","0","0","0.00","0.00"
"22:54:59","59.7","47.9","64.9","29.94","265","0","0","0.00","0.00"
"22:59:56","59.2","47.9","66.3","29.94","265","0","0","0.00","0.00"
"23:04:56","58.9","47.7","66.3","29.94","265","0","0","0.00","0.00"
"23:09:56","58.9","47.5","65.8","29.94","265","0.2","1.2","0.00","0.00"
"23:14:57","58.8","47.8","66.7","29.94","265","0.2","1.2","0.00","0.00"
"23:19:57","58.4","47.7","67.3","29.94","265","0","1.2","0.00","0.00"
"23:24:58","58.1","47.5","67.6","29.94","265","0","0","0.00","0.00"
"23:29:56","57.6","47.4","68.8","29.94","265","0","0","0.00","0.00"
"23:34:57","57.1","47","69","29.94","265","1.2","3.6","0.00","0.00"
"23:39:57","57.1","47.1","69.2","29.94","265","1.9","2.4","0.00","0.00"
"23:44:58","57.2","47.1","69","29.94","265","0.5","2.4","0.00","0.00"
